Погода в Чериктее

Россия / Республика Саха (Якутия)     63°13′52″N   130°59′02″E
темп.,
°C
ветер,
м/с
пор.,
м/с
влажн.,
%
обл.,
%
осадки,
мм/ч
давл.,
гПа
погр.,
м
28 сентября, вт
вт2800:000св26805 0.0 1013109
03:00−1св24803 0.0 101161
06:00−1ссв25781 0.0 101085
09:00+4св35545 0.0 1008302
12:00+8ссв34400 0.0 1007768
15:00+10ссв35360 0.0 10061127
18:00+4ссв38540 0.0 1008179
21:00+1ссв25640 0.0 101099
29 сентября, ср
ср2900:00−1ссв23700 0.0 101242
03:00−2ссв22680 0.0 101339
06:00−3св22675 0.0 101337
09:00+2св23450 0.0 1013239
12:00+6св24300 0.0 1013696
15:00+8всв35280 0.0 1012871
18:00+2св22440 0.0 101229
21:000св255589 0.0 101269
30 сентября, чт
чт3000:00−1всв2558100 0.0 1012103
03:00−1всв2852100 0.0 1011162
06:00+1всв41356100 0.3 1010515
09:00+1всв51388100 0.6 1010660
12:00+3в41080100 0.1 1009668
15:00+3в4878100 0.1 1009495
18:00+2всв3594100 0.1 1008261
21:00+2всв2798100 0.9 1007454
1 октября, пт
пт100:00+1св1398100 0.3 1006183
03:00+1с1394100 0.4 100486
06:00+1сз1278100 0.1 100466
09:00+1всв2581100 0.4 1003322
12:00+2св259798 0.4 1002258
15:00+2св2498100 0.5 1002298
18:00+2св2498100 0.1 1003436
21:00+2всв2498100 0.5 1003470
2 октября, сб
сб200:00+2в2498100 0.6 1003439
03:00+2в119990 0.8 100499
06:00+1всв1198100 0.0 100537
09:00+3в1189100 0.0 1006267
12:00+5юз017271 0.1 1007772
15:00+5сз2273100 0.3 1008653
18:00+3зсз2392100 0.1 1010136
21:00+2зюз2495100 0.1 1011180